Change the Weather History Date:

Thursday, March 27, 2014

  Actual Average Record
Temperature  
Mean Temperature 52 °F -  
Max Temperature 69 °F 58 °F 73 °F (2012)
Min Temperature 33 °F 36 °F 24 °F (2009)
Degree Days  
Heating Degree Days 13    
Growing Degree Days 2 (Base 50)    
Moisture  
Dew Point 40 °F    
Average Humidity 59    
Maximum Humidity 82    
Minimum Humidity 31    
Precipitation  
Precipitation 0.00 in - - ()
Sea Level Pressure  
Sea Level Pressure 29.58 in    
Wind  
Wind Speed 27 mph (WSW)    
Max Wind Speed 39 mph    
Max Gust Speed 48 mph    
Visibility 10 miles    
Events      
Averages and records for this station are not official NWS values.
T = Trace of Precipitation, MM = Missing Value Source: NWS Daily Summary

Daily Weather History Graph

Daily Weather History Graph

Search for Another Location

Airport or City:

Trip Planner

Search our weather history database for the weather conditions in past years. The results will help you decide how hot, cold, wet, or windy it might be!

Date:

Astronomy

Mar. 27, 2014 Rise Set
Actual Time 7:21 AM CDT 7:47 PM CDT
Civil Twilight 6:55 AM CDT 8:14 PM CDT
Nautical Twilight 6:24 AM CDT 8:45 PM CDT
Astronomical Twilight 5:52 AM CDT 9:16 PM CDT
Moon 5:10 AM CDT (3/27) 4:39 PM CDT (3/27)
Length of Visible Light 13h 18m
Length of Day
12h 25m
Waning Crescent, 13% of the Moon is Illuminated
Mar 27
Waning Crescent
Mar 30
New
Apr 7
First Quarter
Apr 15
Full
Apr 22
Last Quarter

Hourly Weather History & Observations

Time (CDT) Temp. Windchill Dew Point Humidity Pressure Visibility Wind Dir Wind Speed Gust Speed Precip Events Conditions
12:15 AM 44.6 °F 35.3 °F 37.4 °F 76% 29.61 in 10.0 mi South 26.5 mph 31.1 mph N/A   Overcast
12:35 AM 46.4 °F 38.1 °F 39.2 °F 76% 29.59 in 10.0 mi South 24.2 mph 29.9 mph N/A   Overcast
12:55 AM 46.4 °F 38.3 °F 39.2 °F 76% 29.58 in 10.0 mi South 23.0 mph 36.8 mph N/A   Overcast
1:15 AM 48.2 °F - 41.0 °F 76% 29.57 in 10.0 mi South 28.8 mph 38.0 mph N/A   Overcast
1:35 AM 48.2 °F - 41.0 °F 76% 29.56 in 10.0 mi South 29.9 mph 34.5 mph N/A   Overcast
1:55 AM 48.2 °F - 42.8 °F 82% 29.55 in 10.0 mi South 26.5 mph 36.8 mph N/A   Overcast
2:15 AM 50.0 °F - 42.8 °F 76% 29.53 in 10.0 mi South 28.8 mph 38.0 mph N/A   Overcast
2:35 AM 50.0 °F - 42.8 °F 76% 29.52 in 10.0 mi South 29.9 mph 39.1 mph N/A   Overcast
2:55 AM 51.8 °F - 42.8 °F 71% 29.51 in 10.0 mi South 31.1 mph 39.1 mph N/A   Overcast
3:15 AM 51.8 °F - 44.6 °F 76% 29.51 in 10.0 mi South 28.8 mph 38.0 mph N/A   Overcast
3:35 AM 51.8 °F - 44.6 °F 76% 29.49 in 10.0 mi South 33.4 mph 44.9 mph N/A   Overcast
3:55 AM 53.6 °F - 44.6 °F 72% 29.48 in 10.0 mi South 29.9 mph 43.7 mph N/A   Overcast
4:15 AM 53.6 °F - 44.6 °F 72% 29.48 in 10.0 mi South 31.1 mph 42.6 mph N/A   Overcast
4:35 AM 53.6 °F - 46.4 °F 77% 29.47 in 10.0 mi SSW 31.1 mph 43.7 mph N/A   Overcast
4:55 AM 53.6 °F - 46.4 °F 77% 29.45 in 10.0 mi SSW 35.7 mph 42.6 mph N/A   Overcast
5:15 AM 53.6 °F - 46.4 °F 77% 29.47 in 10.0 mi SSW 33.4 mph 42.6 mph N/A   Overcast
5:35 AM 55.4 °F - 46.4 °F 72% 29.47 in 10.0 mi SSW 33.4 mph 39.1 mph N/A   Overcast
5:55 AM 55.4 °F - 46.4 °F 72% 29.46 in 10.0 mi SSW 32.2 mph 38.0 mph N/A   Overcast
6:15 AM 55.4 °F - 46.4 °F 72% 29.46 in 10.0 mi SSW 33.4 mph 43.7 mph N/A   Overcast
6:35 AM 55.4 °F - 46.4 °F 72% 29.46 in 10.0 mi SSW 35.7 mph 42.6 mph N/A   Overcast
6:55 AM 55.4 °F - 48.2 °F 77% 29.45 in 10.0 mi SSW 33.4 mph 41.4 mph N/A   Overcast
7:15 AM 55.4 °F - 48.2 °F 77% 29.45 in 10.0 mi SSW 29.9 mph 42.6 mph N/A   Overcast
7:35 AM 55.4 °F - 48.2 °F 77% 29.45 in 10.0 mi SSW 31.1 mph 39.1 mph N/A   Overcast
7:55 AM 55.4 °F - 48.2 °F 77% 29.43 in 10.0 mi SSW 31.1 mph 41.4 mph N/A   Overcast
8:15 AM 55.4 °F - 48.2 °F 77% 29.43 in 10.0 mi SSW 32.2 mph 41.4 mph N/A   Overcast
8:35 AM 57.2 °F - 48.2 °F 72% 29.42 in 10.0 mi SSW 36.8 mph 44.9 mph N/A   Overcast
8:55 AM 57.2 °F - 48.2 °F 72% 29.42 in 10.0 mi SSW 38.0 mph 48.3 mph N/A   Overcast
9:15 AM 57.2 °F - 48.2 °F 72% 29.41 in 10.0 mi SSW 38.0 mph 48.3 mph N/A   Mostly Cloudy
9:35 AM 59.0 °F - 50.0 °F 72% 29.41 in 10.0 mi SSW 38.0 mph 46.0 mph N/A   Mostly Cloudy
9:55 AM 60.8 °F - 50.0 °F 68% 29.41 in 10.0 mi SSW 33.4 mph 41.4 mph N/A   Scattered Clouds
10:15 AM 62.6 °F - 48.2 °F 59% 29.41 in 10.0 mi SSW 29.9 mph 42.6 mph N/A   Scattered Clouds
10:35 AM 64.4 °F - 48.2 °F 56% 29.40 in 10.0 mi SSW 39.1 mph 48.3 mph N/A   Scattered Clouds
10:55 AM 64.4 °F - 46.4 °F 52% 29.41 in 10.0 mi SW 35.7 mph 43.7 mph N/A   Scattered Clouds
11:15 AM 66.2 °F - 44.6 °F 46% 29.42 in 10.0 mi SW 35.7 mph 46.0 mph N/A   Mostly Cloudy
11:35 AM 66.2 °F - 44.6 °F 46% 29.42 in 10.0 mi SW 35.7 mph 43.7 mph N/A   Mostly Cloudy
11:55 AM 68.0 °F - 42.8 °F 40% 29.43 in 10.0 mi WSW 35.7 mph 41.4 mph N/A   Scattered Clouds
12:15 PM 69.8 °F - 39.2 °F 33% 29.44 in 10.0 mi WSW 24.2 mph 39.1 mph N/A   Clear
12:35 PM 69.8 °F - 37.4 °F 31% 29.44 in 10.0 mi WSW 31.1 mph 36.8 mph N/A   Clear
12:55 PM 69.8 °F - 37.4 °F 31% 29.47 in 10.0 mi West 23.0 mph 32.2 mph N/A   Clear
1:15 PM 68.0 °F - 42.8 °F 40% 29.48 in 10.0 mi WNW 23.0 mph 26.5 mph N/A   Partly Cloudy
1:35 PM 66.2 °F - 44.6 °F 46% 29.51 in 10.0 mi WNW 23.0 mph 35.7 mph N/A   Mostly Cloudy
1:55 PM 64.4 °F - 42.8 °F 45% 29.53 in 10.0 mi NW 25.3 mph 33.4 mph N/A   Mostly Cloudy
2:15 PM 64.4 °F - 42.8 °F 45% 29.54 in 10.0 mi WNW 20.7 mph 31.1 mph N/A   Mostly Cloudy
2:35 PM 64.4 °F - 41.0 °F 42% 29.55 in 10.0 mi WNW 24.2 mph 31.1 mph N/A   Scattered Clouds
2:55 PM 64.4 °F - 39.2 °F 40% 29.56 in 10.0 mi WNW 21.9 mph 32.2 mph N/A   Partly Cloudy
3:15 PM 62.6 °F - 39.2 °F 42% 29.56 in 10.0 mi WNW 24.2 mph 29.9 mph N/A   Clear
3:35 PM 64.4 °F - 37.4 °F 37% 29.58 in 10.0 mi WNW 26.5 mph 32.2 mph N/A   Clear
3:55 PM 62.6 °F - 37.4 °F 39% 29.59 in 10.0 mi WNW 24.2 mph 33.4 mph N/A   Clear
4:15 PM 62.6 °F - 35.6 °F 37% 29.61 in 10.0 mi NW 23.0 mph 32.2 mph N/A   Clear
4:35 PM 60.8 °F - 35.6 °F 39% 29.62 in 10.0 mi NW 23.0 mph 32.2 mph N/A   Clear
4:55 PM 60.8 °F - 35.6 °F 39% 29.64 in 10.0 mi NW 24.2 mph 32.2 mph N/A   Clear
5:15 PM 60.8 °F - 35.6 °F 39% 29.65 in 10.0 mi NW 25.3 mph 32.2 mph N/A   Clear
5:35 PM 59.0 °F - 33.8 °F 39% 29.66 in 10.0 mi NW 24.2 mph 31.1 mph N/A   Clear
5:55 PM 57.2 °F - 33.8 °F 41% 29.68 in 10.0 mi NNW 21.9 mph 28.8 mph N/A   Clear
6:15 PM 57.2 °F - 33.8 °F 41% 29.69 in 10.0 mi NNW 23.0 mph 28.8 mph N/A   Clear
6:35 PM 55.4 °F - 33.8 °F 44% 29.71 in 10.0 mi NNW 19.6 mph 28.8 mph N/A   Clear
6:55 PM 53.6 °F - 33.8 °F 47% 29.73 in 10.0 mi NNW 18.4 mph 27.6 mph N/A   Clear
7:15 PM 51.8 °F - 32.0 °F 47% 29.75 in 10.0 mi NNW 16.1 mph 24.2 mph N/A   Clear
7:35 PM 50.0 °F - 30.2 °F 47% 29.77 in 10.0 mi NNW 15.0 mph 19.6 mph N/A   Clear
7:55 PM 48.2 °F - 30.2 °F 50% 29.79 in 10.0 mi NNW 17.3 mph 20.7 mph N/A   Clear
8:15 PM 46.4 °F 39.8 °F 30.2 °F 53% 29.80 in 10.0 mi North 16.1 mph - N/A   Clear
8:35 PM 44.6 °F 37.8 °F 28.4 °F 53% 29.81 in 10.0 mi North 15.0 mph 20.7 mph N/A   Clear
8:55 PM 44.6 °F 38.4 °F 28.4 °F 53% 29.83 in 10.0 mi NNW 12.7 mph - N/A   Clear
9:15 PM 42.8 °F 36.2 °F 28.4 °F 57% 29.85 in 10.0 mi North 12.7 mph 19.6 mph N/A   Clear
9:35 PM 42.8 °F 36.2 °F 28.4 °F 57% 29.86 in 10.0 mi North 12.7 mph 18.4 mph N/A   Clear
9:55 PM 41.0 °F 33.5 °F 28.4 °F 61% 29.87 in 10.0 mi North 13.8 mph - N/A   Clear
10:15 PM 39.2 °F 31.2 °F 28.4 °F 65% 29.87 in 10.0 mi North 13.8 mph - N/A   Clear
10:35 PM 39.2 °F 31.6 °F 26.6 °F 61% 29.88 in 10.0 mi North 12.7 mph - N/A   Clear
10:55 PM 37.4 °F 30.3 °F 26.6 °F 65% 29.89 in 10.0 mi North 10.4 mph - N/A   Clear
11:15 PM 35.6 °F 29.9 °F 26.6 °F 70% 29.88 in 10.0 mi NNE 6.9 mph - N/A   Clear
11:35 PM 35.6 °F 29.2 °F 26.6 °F 70% 29.90 in 10.0 mi North 8.1 mph - N/A   Clear
11:55 PM 33.8 °F 25.8 °F 26.6 °F 75% 29.90 in 10.0 mi North 10.4 mph - N/A   Clear